status,avgMeasuredTime,avgSpeed,extID,medianMeasuredTime,TIMESTAMP,vehicleCount,_id,REPORT_ID
OK,161,18,1046,161,2014-08-01T08:10:00,0,20747923,189967
OK,161,18,1046,161,2014-08-01T08:15:00,0,20748372,189967
OK,63,47,1046,63,2014-08-01T08:20:00,2,20748821,189967
OK,66,45,1046,66,2014-08-01T08:25:00,4,20749270,189967
OK,79,38,1046,79,2014-08-01T08:30:00,4,20749719,189967
OK,66,45,1046,66,2014-08-01T08:40:00,2,20750617,189967
OK,100,30,1046,100,2014-08-01T08:50:00,2,20751515,189967
OK,107,28,1046,107,2014-08-01T09:00:00,2,20752413,189967
OK,110,27,1046,110,2014-08-01T09:05:00,1,20752862,189967
OK,68,44,1046,68,2014-08-01T09:10:00,1,20753311,189967
OK,73,41,1046,73,2014-08-01T09:20:00,1,20754209,189967
OK,73,41,1046,73,2014-08-01T09:25:00,0,20754658,189967
OK,73,41,1046,73,2014-08-01T09:30:00,0,20755107,189967
OK,73,41,1046,73,2014-08-01T09:35:00,0,20755556,189967
OK,81,37,1046,81,2014-08-01T09:40:00,2,20756005,189967
OK,104,29,1046,104,2014-08-01T09:50:00,2,20756903,189967
OK,73,41,1046,73,2014-08-01T10:00:00,1,20757801,189967
OK,181,16,1046,181,2014-08-01T10:20:00,1,20759597,189967
OK,66,45,1046,66,2014-08-01T10:30:00,1,20760495,189967
OK,116,26,1046,116,2014-08-01T10:40:00,1,20761393,189967
OK,121,24,1046,121,2014-08-01T11:20:00,1,20764984,189967
OK,100,30,1046,100,2014-08-01T11:30:00,2,20765882,189967
OK,63,47,1046,63,2014-08-01T11:40:00,1,20766780,189967
OK,63,47,1046,63,2014-08-01T11:45:00,1,20767229,189967
OK,113,26,1046,113,2014-08-01T11:50:00,1,20767678,189967
OK,113,26,1046,113,2014-08-01T12:00:00,0,20768576,189967
OK,113,26,1046,113,2014-08-01T12:10:00,0,20769474,189967
OK,92,32,1046,92,2014-08-01T12:20:00,2,20770372,189967
OK,80,37,1046,80,2014-08-01T12:30:00,0,20771270,189967
OK,80,37,1046,80,2014-08-01T12:40:00,1,20772168,189967
OK,85,35,1046,85,2014-08-01T12:50:00,2,20773066,189967
OK,67,45,1046,67,2014-08-01T13:00:00,0,20773964,189967
OK,67,45,1046,67,2014-08-01T13:10:00,0,20774862,189967
OK,68,44,1046,68,2014-08-01T13:20:00,1,20775760,189967
OK,122,24,1046,122,2014-08-01T13:30:00,1,20776658,189967
OK,106,28,1046,106,2014-08-01T13:40:00,1,20777556,189967
OK,106,28,1046,106,2014-08-01T13:50:00,0,20778454,189967
OK,125,24,1046,125,2014-08-01T14:05:00,2,20779801,189967
OK,105,28,1046,105,2014-08-01T14:10:00,1,20780250,189967
OK,105,28,1046,105,2014-08-01T14:15:00,1,20780699,189967
OK,59,51,1046,59,2014-08-01T14:20:00,1,20781148,189967
OK,59,51,1046,59,2014-08-01T14:25:00,1,20781597,189967
OK,88,34,1046,88,2014-08-01T14:30:00,1,20782046,189967
OK,88,34,1046,88,2014-08-01T14:35:00,1,20782495,189967
OK,142,21,1046,142,2014-08-01T14:40:00,1,20782944,189967
OK,142,21,1046,142,2014-08-01T14:45:00,1,20783393,189967
OK,142,21,1046,142,2014-08-01T14:50:00,0,20783842,189967
OK,142,21,1046,142,2014-08-01T15:00:00,0,20784740,189967
OK,142,21,1046,142,2014-08-01T15:05:00,0,20785189,189967
OK,142,21,1046,142,2014-08-01T15:10:00,0,20785638,189967
OK,142,21,1046,142,2014-08-01T15:15:00,0,20786087,189967
OK,69,43,1046,69,2014-08-01T15:20:00,2,20786536,189967
OK,70,43,1046,70,2014-08-01T15:25:00,3,20786985,189967
OK,99,30,1046,99,2014-08-01T15:30:00,1,20787434,189967
OK,99,30,1046,99,2014-08-01T15:35:00,0,20787883,189967
OK,79,38,1046,79,2014-08-01T15:40:00,2,20788332,189967
OK,86,35,1046,86,2014-08-01T15:45:00,3,20788781,189967
OK,86,35,1046,86,2014-08-01T15:50:00,1,20789230,189967
OK,91,33,1046,91,2014-08-01T15:55:00,1,20789679,189967
OK,91,33,1046,91,2014-08-01T16:00:00,1,20790128,189967
OK,91,33,1046,91,2014-08-01T16:05:00,0,20790577,189967
OK,91,33,1046,91,2014-08-01T16:10:00,0,20791026,189967
OK,91,33,1046,91,2014-08-01T16:15:00,0,20791475,189967
OK,91,33,1046,91,2014-08-01T16:20:00,0,20791924,189967
OK,91,33,1046,91,2014-08-01T16:25:00,0,20792373,189967
OK,91,33,1046,91,2014-08-01T16:30:00,0,20792822,189967
OK,91,33,1046,91,2014-08-01T16:35:00,0,20793271,189967
OK,106,28,1046,106,2014-08-01T16:40:00,1,20793720,189967
OK,106,28,1046,106,2014-08-01T16:45:00,1,20794169,189967
OK,75,40,1046,75,2014-08-01T16:50:00,1,20794618,189967
OK,75,40,1046,75,2014-08-01T16:55:00,1,20795067,189967
OK,75,40,1046,75,2014-08-01T17:00:00,0,20795516,189967
OK,75,40,1046,75,2014-08-01T17:05:00,0,20795965,189967
OK,75,40,1046,75,2014-08-01T17:10:00,0,20796414,189967
OK,60,50,1046,60,2014-08-01T17:15:00,2,20796863,189967
OK,60,50,1046,60,2014-08-01T17:20:00,2,20797312,189967
OK,60,50,1046,60,2014-08-01T17:25:00,0,20797761,189967
OK,60,50,1046,60,2014-08-01T17:30:00,0,20798210,189967
OK,60,50,1046,60,2014-08-01T17:35:00,0,20798659,189967
OK,66,45,1046,66,2014-08-01T17:40:00,1,20799108,189967
OK,66,45,1046,66,2014-08-01T17:45:00,1,20799557,189967
OK,66,45,1046,66,2014-08-01T17:50:00,0,20800006,189967
OK,66,45,1046,66,2014-08-01T17:55:00,0,20800455,189967
OK,77,39,1046,77,2014-08-01T18:00:00,1,20800904,189967
OK,77,39,1046,77,2014-08-01T18:05:00,1,20801353,189967
OK,77,39,1046,77,2014-08-01T18:10:00,0,20801802,189967
OK,77,39,1046,77,2014-08-01T18:15:00,0,20802251,189967
OK,77,39,1046,77,2014-08-01T18:20:00,0,20802700,189967
OK,77,39,1046,77,2014-08-01T18:25:00,0,20803149,189967
OK,77,39,1046,77,2014-08-01T18:30:00,0,20803598,189967
OK,77,39,1046,77,2014-08-01T18:35:00,0,20804047,189967
OK,77,39,1046,77,2014-08-01T18:40:00,0,20804496,189967
OK,77,39,1046,77,2014-08-01T18:45:00,0,20804945,189967
OK,77,39,1046,77,2014-08-01T18:50:00,0,20805394,189967
OK,88,34,1046,88,2014-08-01T18:55:00,1,20805843,189967
OK,88,34,1046,88,2014-08-01T19:00:00,0,20806292,189967
OK,88,34,1046,88,2014-08-01T19:05:00,0,20806741,189967
OK,88,34,1046,88,2014-08-01T19:10:00,0,20807190,189967
OK,88,34,1046,88,2014-08-01T19:15:00,0,20807639,189967
OK,88,34,1046,88,2014-08-01T19:20:00,0,20808088,189967
OK,88,34,1046,88,2014-08-01T19:25:00,0,20808537,189967
OK,88,34,1046,88,2014-08-01T19:30:00,0,20808986,189967
OK,86,35,1046,86,2014-08-01T19:35:00,1,20809435,189967
OK,86,35,1046,86,2014-08-01T19:40:00,1,20809884,189967
OK,86,35,1046,86,2014-08-01T19:45:00,0,20810333,189967
OK,86,35,1046,86,2014-08-01T19:50:00,0,20810782,189967
OK,120,25,1046,120,2014-08-01T19:55:00,1,20811231,189967
OK,120,25,1046,120,2014-08-01T22:00:00,0,20816960,189967
OK,68,44,1046,68,2014-08-02T00:00:00,0,20823399,189967
OK,68,44,1046,68,2014-08-02T00:05:00,0,20823848,189967
OK,68,44,1046,68,2014-08-02T00:10:00,0,20824297,189967
OK,68,44,1046,68,2014-08-02T00:15:00,0,20824746,189967
OK,68,44,1046,68,2014-08-02T00:20:00,0,20825195,189967
OK,68,44,1046,68,2014-08-02T00:25:00,0,20825644,189967
OK,68,44,1046,68,2014-08-02T00:30:00,0,20826093,189967
OK,68,44,1046,68,2014-08-02T00:35:00,0,20826542,189967
OK,68,44,1046,68,2014-08-02T00:40:00,0,20826991,189967
OK,68,44,1046,68,2014-08-02T00:45:00,0,20827440,189967
OK,68,44,1046,68,2014-08-02T00:50:00,0,20827889,189967
OK,68,44,1046,68,2014-08-02T00:55:00,0,20828338,189967
OK,68,44,1046,68,2014-08-02T01:00:00,0,20828787,189967
OK,68,44,1046,68,2014-08-02T01:05:00,0,20829236,189967
OK,68,44,1046,68,2014-08-02T01:10:00,0,20829685,189967
OK,68,44,1046,68,2014-08-02T01:15:00,0,20830134,189967
OK,68,44,1046,68,2014-08-02T01:20:00,0,20830583,189967
OK,68,44,1046,68,2014-08-02T01:25:00,0,20831032,189967
OK,68,44,1046,68,2014-08-02T01:30:00,0,20831481,189967
OK,68,44,1046,68,2014-08-02T01:35:00,0,20831930,189967
OK,68,44,1046,68,2014-08-02T01:40:00,0,20832379,189967
OK,68,44,1046,68,2014-08-02T01:45:00,0,20832828,189967
OK,68,44,1046,68,2014-08-02T01:50:00,0,20833277,189967
OK,68,44,1046,68,2014-08-02T01:55:00,0,20833726,189967
OK,68,44,1046,68,2014-08-02T02:00:00,0,20834175,189967
OK,68,44,1046,68,2014-08-02T02:05:00,0,20834624,189967
OK,68,44,1046,68,2014-08-02T02:10:00,0,20835073,189967
OK,68,44,1046,68,2014-08-02T02:15:00,0,20835522,189967
OK,68,44,1046,68,2014-08-02T02:20:00,0,20835971,189967
OK,68,44,1046,68,2014-08-02T02:25:00,0,20836420,189967
OK,68,44,1046,68,2014-08-02T02:30:00,0,20836869,189967
OK,68,44,1046,68,2014-08-02T02:35:00,0,20837318,189967
OK,68,44,1046,68,2014-08-02T02:40:00,0,20837767,189967
OK,68,44,1046,68,2014-08-02T02:45:00,0,20838216,189967
OK,68,44,1046,68,2014-08-02T02:50:00,0,20838665,189967
OK,68,44,1046,68,2014-08-02T02:55:00,0,20839114,189967
OK,68,44,1046,68,2014-08-02T03:00:00,0,20839563,189967
OK,68,44,1046,68,2014-08-02T03:05:00,0,20840012,189967
OK,68,44,1046,68,2014-08-02T03:10:00,0,20840461,189967
OK,68,44,1046,68,2014-08-02T03:15:00,0,20840910,189967
OK,68,44,1046,68,2014-08-02T03:20:00,0,20841359,189967
OK,68,44,1046,68,2014-08-02T03:25:00,0,20841808,189967
OK,68,44,1046,68,2014-08-02T03:30:00,0,20842257,189967
OK,68,44,1046,68,2014-08-02T03:35:00,0,20842706,189967
OK,68,44,1046,68,2014-08-02T03:40:00,0,20843155,189967
OK,68,44,1046,68,2014-08-02T03:45:00,0,20843604,189967
OK,68,44,1046,68,2014-08-02T03:50:00,0,20844053,189967
OK,68,44,1046,68,2014-08-02T03:55:00,0,20844502,189967
OK,68,44,1046,68,2014-08-02T06:00:00,0,20851956,189967
OK,68,44,1046,68,2014-08-02T06:05:00,0,20852405,189967
OK,68,44,1046,68,2014-08-02T06:10:00,0,20852854,189967
OK,73,41,1046,73,2014-08-02T06:15:00,2,20853303,189967
OK,71,42,1046,71,2014-08-02T06:20:00,1,20853752,189967
OK,71,42,1046,71,2014-08-02T06:25:00,0,20854201,189967
OK,71,42,1046,71,2014-08-02T06:30:00,0,20854650,189967
OK,57,52,1046,57,2014-08-02T06:35:00,1,20855099,189967
OK,71,42,1046,71,2014-08-02T06:40:00,2,20855548,189967
OK,124,24,1046,124,2014-08-02T06:45:00,2,20855997,189967
OK,163,18,1046,163,2014-08-02T06:50:00,1,20856446,189967
OK,163,18,1046,163,2014-08-02T06:55:00,0,20856895,189967
OK,163,18,1046,163,2014-08-02T07:00:00,0,20857344,189967
OK,163,18,1046,163,2014-08-02T07:05:00,0,20857793,189967
OK,68,44,1046,68,2014-08-02T07:10:00,1,20858242,189967
OK,68,44,1046,68,2014-08-02T07:15:00,1,20858691,189967
OK,68,44,1046,68,2014-08-02T07:20:00,0,20859140,189967
OK,68,44,1046,68,2014-08-02T07:25:00,0,20859589,189967
OK,83,36,1046,83,2014-08-02T07:30:00,1,20860038,189967
OK,83,36,1046,83,2014-08-02T07:35:00,3,20860487,189967
OK,66,45,1046,66,2014-08-02T07:40:00,1,20860936,189967
OK,66,45,1046,66,2014-08-02T07:45:00,0,20861385,189967
OK,66,45,1046,66,2014-08-02T07:50:00,0,20861834,189967
OK,87,34,1046,87,2014-08-02T07:55:00,1,20862283,189967
OK,86,35,1046,86,2014-08-02T08:00:00,2,20862732,189967
OK,80,37,1046,80,2014-08-02T08:05:00,2,20863181,189967
OK,74,40,1046,74,2014-08-02T08:10:00,0,20863630,189967
OK,74,40,1046,74,2014-08-02T08:15:00,0,20864079,189967
OK,74,40,1046,74,2014-08-02T08:20:00,0,20864528,189967
OK,74,40,1046,74,2014-08-02T08:25:00,0,20864977,189967
OK,109,27,1046,109,2014-08-02T08:30:00,2,20865426,189967
OK,109,27,1046,109,2014-08-02T08:35:00,2,20865875,189967
OK,125,24,1046,125,2014-08-02T08:40:00,0,20866324,189967
OK,125,24,1046,125,2014-08-02T08:45:00,0,20866773,189967
OK,83,36,1046,83,2014-08-02T08:50:00,1,20867222,189967
OK,83,36,1046,83,2014-08-02T08:55:00,1,20867671,189967
OK,118,25,1046,118,2014-08-02T09:00:00,1,20868120,189967
OK,93,32,1046,93,2014-08-02T09:05:00,3,20868569,189967
OK,78,38,1046,78,2014-08-02T09:10:00,2,20869018,189967
OK,63,47,1046,63,2014-08-02T09:15:00,0,20869467,189967
OK,63,47,1046,63,2014-08-02T09:20:00,0,20869916,189967
OK,63,47,1046,63,2014-08-02T09:25:00,0,20870365,189967
OK,115,26,1046,115,2014-08-02T09:30:00,1,20870814,189967
OK,115,26,1046,115,2014-08-02T09:35:00,1,20871263,189967
OK,129,23,1046,129,2014-08-02T09:40:00,2,20871712,189967
OK,129,23,1046,129,2014-08-02T09:45:00,0,20872161,189967
OK,129,23,1046,129,2014-08-02T09:50:00,0,20872610,189967
OK,114,26,1046,114,2014-08-02T09:55:00,2,20873059,189967
OK,113,26,1046,113,2014-08-02T10:00:00,3,20873508,189967
OK,93,32,1046,93,2014-08-02T10:05:00,1,20873957,189967
OK,93,32,1046,93,2014-08-02T10:10:00,0,20874406,189967
OK,75,40,1046,75,2014-08-02T10:15:00,3,20874855,189967
OK,92,32,1046,92,2014-08-02T10:20:00,4,20875304,189967
OK,97,31,1046,97,2014-08-02T10:25:00,2,20875753,189967
OK,92,32,1046,92,2014-08-02T10:30:00,2,20876202,189967
OK,99,30,1046,99,2014-08-02T10:35:00,1,20876651,189967
OK,81,37,1046,81,2014-08-02T10:40:00,1,20877100,189967
OK,94,32,1046,94,2014-08-02T10:45:00,2,20877549,189967
OK,82,36,1046,82,2014-08-02T10:50:00,2,20877998,189967
OK,57,52,1046,57,2014-08-02T10:55:00,1,20878447,189967
OK,57,52,1046,57,2014-08-02T11:00:00,0,20878896,189967
OK,57,52,1046,57,2014-08-02T11:05:00,0,20879345,189967
OK,57,52,1046,57,2014-08-02T11:10:00,0,20879794,189967
OK,57,52,1046,57,2014-08-02T11:15:00,0,20880243,189967
OK,112,26,1046,112,2014-08-02T11:20:00,1,20880692,189967
OK,112,26,1046,112,2014-08-02T11:25:00,1,20881141,189967
OK,112,26,1046,112,2014-08-02T11:30:00,0,20881590,189967
OK,80,37,1046,80,2014-08-02T11:35:00,3,20882039,189967
OK,80,37,1046,80,2014-08-02T11:40:00,3,20882488,189967
OK,80,37,1046,80,2014-08-02T11:45:00,0,20882937,189967
OK,80,37,1046,80,2014-08-02T11:50:00,0,20883386,189967
OK,80,37,1046,80,2014-08-02T11:55:00,0,20883835,189967
OK,83,36,1046,83,2014-08-02T12:00:00,2,20884284,189967
OK,94,32,1046,94,2014-08-02T12:05:00,1,20884733,189967
OK,94,32,1046,94,2014-08-02T12:10:00,0,20885182,189967
OK,94,32,1046,94,2014-08-02T12:15:00,0,20885631,189967
OK,94,32,1046,94,2014-08-02T12:20:00,0,20886080,189967
OK,94,32,1046,94,2014-08-02T12:25:00,0,20886529,189967
OK,94,32,1046,94,2014-08-02T12:30:00,0,20886978,189967
OK,87,34,1046,87,2014-08-02T12:35:00,1,20887427,189967
OK,87,34,1046,87,2014-08-02T12:40:00,1,20887876,189967
OK,87,34,1046,87,2014-08-02T12:45:00,0,20888325,189967
OK,87,34,1046,87,2014-08-02T12:50:00,0,20888774,189967
OK,87,34,1046,87,2014-08-02T12:55:00,0,20889223,189967
OK,87,34,1046,87,2014-08-02T13:00:00,0,20889672,189967
OK,87,34,1046,87,2014-08-02T13:05:00,0,20890121,189967
OK,87,34,1046,87,2014-08-02T13:10:00,0,20890570,189967
OK,87,34,1046,87,2014-08-02T13:15:00,0,20891019,189967
OK,87,34,1046,87,2014-08-02T13:20:00,0,20891468,189967
OK,101,29,1046,101,2014-08-02T13:25:00,1,20891917,189967
OK,101,29,1046,101,2014-08-02T13:30:00,1,20892366,189967
OK,72,41,1046,72,2014-08-02T13:35:00,1,20892815,189967
OK,72,41,1046,72,2014-08-02T13:40:00,1,20893264,189967
OK,72,41,1046,72,2014-08-02T13:45:00,0,20893713,189967
OK,72,41,1046,72,2014-08-02T13:50:00,0,20894162,189967
OK,72,41,1046,72,2014-08-02T13:55:00,0,20894611,189967
OK,72,41,1046,72,2014-08-02T14:00:00,0,20895060,189967
OK,72,41,1046,72,2014-08-02T14:05:00,0,20895509,189967
OK,52,58,1046,52,2014-08-02T14:10:00,1,20895958,189967
OK,56,53,1046,56,2014-08-02T14:15:00,2,20896407,189967
OK,61,49,1046,61,2014-08-02T14:20:00,1,20896856,189967
OK,61,49,1046,61,2014-08-02T14:25:00,0,20897305,189967
OK,61,49,1046,61,2014-08-02T14:30:00,0,20897754,189967
OK,61,49,1046,61,2014-08-02T14:35:00,0,20898203,189967
OK,61,49,1046,61,2014-08-02T14:40:00,0,20898652,189967
OK,61,49,1046,61,2014-08-02T14:45:00,0,20899101,189967
OK,61,49,1046,61,2014-08-02T14:50:00,0,20899550,189967
OK,61,49,1046,61,2014-08-02T14:55:00,0,20899999,189967
OK,61,49,1046,61,2014-08-02T15:00:00,0,20900448,189967
OK,61,49,1046,61,2014-08-02T15:05:00,0,20900897,189967
OK,61,49,1046,61,2014-08-02T15:10:00,0,20901346,189967
OK,61,49,1046,61,2014-08-02T15:15:00,0,20901795,189967
OK,61,49,1046,61,2014-08-02T15:20:00,0,20902244,189967
OK,61,49,1046,61,2014-08-02T15:25:00,0,20902693,189967
OK,61,49,1046,61,2014-08-02T15:30:00,0,20903142,189967
OK,61,49,1046,61,2014-08-02T15:35:00,0,20903591,189967
OK,61,49,1046,61,2014-08-02T15:40:00,0,20904040,189967
OK,61,49,1046,61,2014-08-02T15:45:00,0,20904489,189967
OK,61,49,1046,61,2014-08-02T15:50:00,0,20904938,189967
OK,72,41,1046,72,2014-08-02T15:55:00,1,20905387,189967
OK,72,41,1046,72,2014-08-02T16:00:00,1,20905836,189967
OK,72,41,1046,72,2014-08-02T16:05:00,0,20906285,189967
OK,72,41,1046,72,2014-08-02T16:10:00,0,20906734,189967
OK,72,41,1046,72,2014-08-02T16:15:00,0,20907183,189967
OK,72,41,1046,72,2014-08-02T16:20:00,0,20907632,189967
OK,72,41,1046,72,2014-08-02T16:25:00,0,20908081,189967
OK,107,28,1046,107,2014-08-02T16:30:00,1,20908530,189967
OK,107,28,1046,107,2014-08-02T16:35:00,1,20908979,189967
OK,107,28,1046,107,2014-08-02T16:40:00,0,20909428,189967
OK,107,28,1046,107,2014-08-02T16:45:00,0,20909877,189967
OK,107,28,1046,107,2014-08-02T16:50:00,0,20910326,189967
OK,107,28,1046,107,2014-08-02T16:55:00,0,20910775,189967
OK,107,28,1046,107,2014-08-02T17:00:00,0,20911224,189967
OK,107,28,1046,107,2014-08-02T17:05:00,0,20911673,189967
OK,107,28,1046,107,2014-08-02T17:10:00,0,20912122,189967
OK,107,28,1046,107,2014-08-02T17:15:00,0,20912571,189967
OK,107,28,1046,107,2014-08-02T17:20:00,0,20913020,189967
OK,107,28,1046,107,2014-08-02T17:25:00,0,20913469,189967
OK,94,32,1046,94,2014-08-02T17:30:00,1,20913918,189967
OK,94,32,1046,94,2014-08-02T17:35:00,1,20914367,189967
OK,94,32,1046,94,2014-08-02T17:40:00,0,20914816,189967
OK,94,32,1046,94,2014-08-02T17:45:00,0,20915265,189967
OK,94,32,1046,94,2014-08-02T17:50:00,0,20915714,189967
OK,94,32,1046,94,2014-08-02T17:55:00,0,20916163,189967
OK,94,32,1046,94,2014-08-02T18:00:00,0,20916612,189967
OK,94,32,1046,94,2014-08-02T18:05:00,0,20917061,189967
OK,94,32,1046,94,2014-08-02T18:10:00,0,20917510,189967
OK,94,32,1046,94,2014-08-02T18:15:00,0,20917959,189967
OK,94,32,1046,94,2014-08-02T18:20:00,0,20918408,189967
OK,94,32,1046,94,2014-08-02T18:25:00,0,20918857,189967
OK,94,32,1046,94,2014-08-02T18:30:00,0,20919306,189967
OK,112,26,1046,112,2014-08-02T18:35:00,1,20919755,189967
OK,95,31,1046,95,2014-08-02T18:40:00,2,20920204,189967
OK,78,38,1046,78,2014-08-02T18:45:00,1,20920653,189967
OK,78,38,1046,78,2014-08-02T18:50:00,0,20921102,189967
OK,78,38,1046,78,2014-08-02T18:55:00,0,20921551,189967
OK,78,38,1046,78,2014-08-02T19:00:00,0,20922000,189967
OK,71,42,1046,71,2014-08-02T19:05:00,1,20922449,189967
OK,71,42,1046,71,2014-08-02T19:10:00,0,20922898,189967
OK,71,42,1046,71,2014-08-02T19:15:00,0,20923347,189967
OK,71,42,1046,71,2014-08-02T19:20:00,0,20923796,189967
OK,71,42,1046,71,2014-08-02T19:25:00,0,20924245,189967
OK,71,42,1046,71,2014-08-02T19:30:00,0,20924694,189967
OK,71,42,1046,71,2014-08-02T19:35:00,0,20925143,189967
OK,71,42,1046,71,2014-08-02T19:40:00,0,20925592,189967
OK,71,42,1046,71,2014-08-02T19:45:00,0,20926041,189967
OK,71,42,1046,71,2014-08-02T19:50:00,0,20926490,189967
OK,71,42,1046,71,2014-08-02T19:55:00,0,20926939,189967
OK,71,42,1046,71,2014-08-02T20:00:00,0,20927388,189967
OK,71,42,1046,71,2014-08-02T20:05:00,0,20927837,189967
OK,71,42,1046,71,2014-08-02T20:10:00,0,20928286,189967
OK,71,42,1046,71,2014-08-02T20:15:00,0,20928735,189967
OK,71,42,1046,71,2014-08-02T20:20:00,0,20929184,189967
OK,71,42,1046,71,2014-08-02T20:25:00,0,20929633,189967
OK,71,42,1046,71,2014-08-02T20:30:00,0,20930082,189967
OK,71,42,1046,71,2014-08-02T20:35:00,0,20930531,189967
OK,71,42,1046,71,2014-08-02T20:40:00,0,20930980,189967
OK,71,42,1046,71,2014-08-02T20:45:00,0,20931429,189967
OK,71,42,1046,71,2014-08-02T20:50:00,0,20931878,189967
OK,139,21,1046,139,2014-08-02T20:55:00,1,20932327,189967
OK,139,21,1046,139,2014-08-02T21:00:00,0,20932776,189967
OK,139,21,1046,139,2014-08-02T21:05:00,0,20933225,189967
OK,139,21,1046,139,2014-08-02T21:10:00,0,20933674,189967
OK,139,21,1046,139,2014-08-02T21:15:00,0,20934123,189967
OK,139,21,1046,139,2014-08-02T21:20:00,0,20934572,189967
OK,139,21,1046,139,2014-08-02T21:25:00,0,20935021,189967
OK,139,21,1046,139,2014-08-02T21:30:00,0,20935470,189967
OK,139,21,1046,139,2014-08-02T21:35:00,0,20935919,189967
OK,139,21,1046,139,2014-08-02T21:40:00,0,20936368,189967
OK,139,21,1046,139,2014-08-02T21:45:00,0,20936817,189967
OK,139,21,1046,139,2014-08-02T21:50:00,0,20937266,189967
OK,139,21,1046,139,2014-08-02T21:55:00,0,20937715,189967
OK,139,21,1046,139,2014-08-02T22:00:00,0,20938164,189967
OK,139,21,1046,139,2014-08-02T22:05:00,0,20938613,189967
OK,139,21,1046,139,2014-08-02T22:10:00,0,20939062,189967
OK,139,21,1046,139,2014-08-02T22:15:00,0,20939511,189967
OK,139,21,1046,139,2014-08-02T22:20:00,0,20939960,189967
OK,139,21,1046,139,2014-08-02T22:25:00,0,20940409,189967
OK,139,21,1046,139,2014-08-02T22:30:00,0,20940858,189967
OK,139,21,1046,139,2014-08-02T22:35:00,0,20941307,189967
OK,64,47,1046,64,2014-08-02T22:40:00,1,20941756,189967
OK,64,47,1046,64,2014-08-02T22:45:00,1,20942205,189967
OK,64,47,1046,64,2014-08-02T22:50:00,0,20942654,189967
OK,64,47,1046,64,2014-08-02T22:55:00,0,20943103,189967
OK,64,47,1046,64,2014-08-02T23:00:00,0,20943552,189967
OK,64,47,1046,64,2014-08-02T23:10:00,0,20944001,189967
OK,64,47,1046,64,2014-08-02T23:15:00,0,20944450,189967
OK,64,47,1046,64,2014-08-02T23:20:00,0,20944899,189967
OK,64,47,1046,64,2014-08-02T23:25:00,0,20945348,189967
OK,64,47,1046,64,2014-08-02T23:30:00,0,20945797,189967
OK,64,47,1046,64,2014-08-02T23:35:00,0,20946246,189967
OK,64,47,1046,64,2014-08-02T23:40:00,0,20946695,189967
OK,64,47,1046,64,2014-08-02T23:45:00,0,20947144,189967
OK,64,47,1046,64,2014-08-02T23:50:00,0,20947593,189967
OK,64,47,1046,64,2014-08-02T23:55:00,0,20948042,189967
OK,74,40,1046,74,2014-08-03T00:00:00,1,20948491,189967
OK,74,40,1046,74,2014-08-03T00:05:00,0,20948940,189967
OK,74,40,1046,74,2014-08-03T00:10:00,0,20949388,189967
OK,74,40,1046,74,2014-08-03T00:15:00,0,20949837,189967
OK,74,40,1046,74,2014-08-03T00:20:00,0,20950286,189967
OK,74,40,1046,74,2014-08-03T00:25:00,0,20950735,189967
OK,74,40,1046,74,2014-08-03T00:30:00,0,20951184,189967
OK,74,40,1046,74,2014-08-03T00:35:00,0,20951633,189967
OK,74,40,1046,74,2014-08-03T00:40:00,0,20952082,189967
OK,74,40,1046,74,2014-08-03T00:45:00,0,20952531,189967
OK,74,40,1046,74,2014-08-03T00:50:00,0,20952980,189967
OK,74,40,1046,74,2014-08-03T00:55:00,0,20953429,189967
OK,74,40,1046,74,2014-08-03T01:00:00,0,20953878,189967
OK,74,40,1046,74,2014-08-03T01:05:00,0,20954327,189967
OK,74,40,1046,74,2014-08-03T01:10:00,0,20954776,189967
OK,74,40,1046,74,2014-08-03T01:15:00,0,20955225,189967
OK,74,40,1046,74,2014-08-03T01:20:00,0,20955674,189967
OK,74,40,1046,74,2014-08-03T01:25:00,0,20956123,189967
OK,74,40,1046,74,2014-08-03T01:30:00,0,20956572,189967
OK,74,40,1046,74,2014-08-03T01:35:00,0,20957021,189967
OK,74,40,1046,74,2014-08-03T01:40:00,0,20957470,189967
OK,74,40,1046,74,2014-08-03T01:45:00,0,20957919,189967
OK,74,40,1046,74,2014-08-03T01:50:00,0,20958368,189967
OK,74,40,1046,74,2014-08-03T01:55:00,0,20958817,189967
OK,74,40,1046,74,2014-08-03T02:00:00,0,20959266,189967
OK,74,40,1046,74,2014-08-03T02:05:00,0,20959715,189967
OK,74,40,1046,74,2014-08-03T02:10:00,0,20960164,189967
OK,74,40,1046,74,2014-08-03T02:15:00,0,20960613,189967
OK,74,40,1046,74,2014-08-03T02:20:00,0,20961062,189967
OK,74,40,1046,74,2014-08-03T02:25:00,0,20961511,189967
OK,74,40,1046,74,2014-08-03T02:30:00,0,20961960,189967
OK,74,40,1046,74,2014-08-03T02:35:00,0,20962409,189967
OK,74,40,1046,74,2014-08-03T02:40:00,0,20962858,189967
OK,74,40,1046,74,2014-08-03T02:45:00,0,20963307,189967
OK,74,40,1046,74,2014-08-03T02:50:00,0,20963756,189967
OK,74,40,1046,74,2014-08-03T02:55:00,0,20964205,189967
OK,74,40,1046,74,2014-08-03T03:00:00,0,20964654,189967
OK,74,40,1046,74,2014-08-03T03:05:00,0,20965103,189967
OK,74,40,1046,74,2014-08-03T03:10:00,0,20965552,189967
OK,74,40,1046,74,2014-08-03T03:15:00,0,20966001,189967
OK,74,40,1046,74,2014-08-03T03:20:00,0,20966450,189967
OK,74,40,1046,74,2014-08-03T03:25:00,0,20966899,189967
OK,74,40,1046,74,2014-08-03T03:30:00,0,20967348,189967
OK,74,40,1046,74,2014-08-03T03:35:00,0,20967797,189967
OK,74,40,1046,74,2014-08-03T03:40:00,0,20968246,189967
OK,74,40,1046,74,2014-08-03T03:45:00,0,20968695,189967
OK,74,40,1046,74,2014-08-03T03:50:00,0,20969144,189967
OK,74,40,1046,74,2014-08-03T03:55:00,0,20969593,189967
OK,62,48,1046,62,2014-08-03T05:00:00,1,20975059,189967
OK,62,48,1046,62,2014-08-03T06:00:00,0,20980029,189967
OK,62,48,1046,62,2014-08-03T06:05:00,0,20980478,189967
OK,62,48,1046,62,2014-08-03T06:10:00,0,20980927,189967